Regional Weather Roundup
Issued by NWS Sterling, VA

Home | Current Version | Previous Version | Graphics & Text | Print | Product List | Glossary Off
Versions: 1 2 3 4 5 6 7 8 9 10 11 12 13 14 15 16 17 18 19 20 21 22 23 24 25 26 27

000
ASUS41 KLWX 281711
RWRLWX

REGIONAL WEATHER ROUNDUP
NATIONAL WEATHER SERVICE BALTIMORE MD/WASHINGTON DC
100 PM EDT FRI JUL 28 2017

Note: "FAIR" indicates few or no clouds below 12,000 feet
with no significant weather and/or obstructions to visibility.
 TC=TEMPERATURE CELSIUS

 * =Non NWS site. Station does not report precipitation (e.g. rain,
    snow, etc.), thunder, or fog.

DCZ001-MDZ009-015-VAZ040>042-051-053>054-281800-
WASHINGTON METRO

CITY           SKY/WX    TMP DP  RH WIND       PRES   REMARKS
WASHINGTON NAT TSTM      77  75  93 N7        29.80S
DULLES         CLOUDY    77  73  87 NE8       29.80F
ANDREWS AFB    LGT RAIN  75  72  88 E6        29.79F FOG
FT BELVOIR     CLOUDY    83  73  71 SW3       29.78F
QUANTICO       LGT RAIN  79  75  87 SW6       29.80F FOG
COLLEGE PARK*  CLOUDY    74  72  93 CALM      29.81S
LEESBURG*      CLOUDY    79  75  89 NE6       29.82F
MANASSAS*      CLOUDY    82  72  71 W6        29.80F
GAITHERSBURG*  RAIN      72  70  94 CALM      29.83F FOG

$$

MDZ006>007-011-014-281800-
BALTIMORE METRO

CITY           SKY/WX    TMP DP  RH WIND       PRES   REMARKS
BWI AIRPORT    TSTM      77  74  90 NE8       29.81F
MD SCIENCE CTR   N/A     80  73  79 MISG      29.81F
MARTIN STATE   PTSUNNY   79  75  89 NE6       29.82F
ANNAPOLIS      LGT RAIN  77  75  93 NE8       29.80F
FORT MEADE*    CLOUDY    75  72  88 S8        29.84R VSB 1/4

$$

MDZ012-015-019>023-281800-
MARYLAND EASTERN SHORE

CITY           SKY/WX    TMP DP  RH WIND       PRES   REMARKS
OCEAN CITY     MOSUNNY   81  75  82 S7        29.81F
SALISBURY      MOSUNNY   86  75  69 SW6       29.80S HX  95
BAY BRIDGE AP* CLOUDY    81  73  78 S8        29.79F
CAMBRIDGE*     SUNNY     82  73  74 SE5       29.80F
EASTON*        PTSUNNY   82  73  74 E5        29.84S

$$

MDZ017>025-281800-
SOUTHERN MARYLAND

CITY           SKY/WX    TMP DP  RH WIND       PRES   REMARKS
PATUXENT RIVER CLOUDY    80  75  84 SE9       29.80S
ST INIGOES     PTSUNNY   80  74  81 SE3       29.80S
LEONARDTOWN*   CLOUDY    81  72  74 SE3       29.81S

$$

MDZ003>005-281800-
NORTH CENTRAL MARYLAND

CITY           SKY/WX    TMP DP  RH WIND       PRES   REMARKS
FREDERICK*     TSTM      73  73 100 S8        29.85S VSB 3/4
HAGERSTOWN APT CLOUDY    77  74  90 N3        29.82F FOG
WESTMINSTER*   CLOUDY    82  72  69 E6        29.82F THUNDER

$$

MDZ501>502-281800-
WESTERN MARYLAND

CITY           SKY/WX    TMP DP  RH WIND       PRES   REMARKS
OAKLAND*       CLOUDY    66  64  94 SE6       29.88F
CUMBERLAND*    CLOUDY    73  72  94 CALM      29.87F

$$

VAZ025>031-281800-
SHENANDOAH VALLEY

CITY           SKY/WX    TMP DP  RH WIND       PRES   REMARKS
WINCHESTER*    CLOUDY    77  68  73 SE3       29.82F
FRONT ROYAL*   CLOUDY    77  70  78 CALM      29.82F
LURAY*         CLOUDY    73  70  88 S3        29.84F
NEW MARKET*    CLOUDY    73  70  89 CALM      29.83F
STAUNTON*      CLOUDY    80  69  70 CALM      29.84F
WAYNESBORO*    CLOUDY    82  70  68 S7        29.84F

$$

WVZ021-048>050-054>055-281800-
EASTERN WEST VIRGINIA PANHANDLE

CITY           SKY/WX    TMP DP  RH WIND       PRES   REMARKS
MARTINSBURG    CLOUDY    75  71  87 N3        29.81F FOG
PETERSBURG*    CLOUDY    74  72  93 CALM      29.83F THUNDER

$$

VAZ036>039-050-281800-
CENTRAL FOOTHILLS

CITY           SKY/WX    TMP DP  RH WIND       PRES   REMARKS
CHARLOTTESVILL CLOUDY    84  72  67 N5        29.82F
CULPEPER*      DRIZZLE   77  73  87 SW5       29.82F
ORANGE*        CLOUDY    75  72  88 NE5       29.82F
GORDONSVILLE*  CLOUDY    79  73  80 NE5       29.81F
WARRENTON*     LGT RAIN  79  70  74 SW7       29.81F

$$

VAZ055>057-281800-
NORTH AND CENTRAL PIEDMONT

CITY           SKY/WX    TMP DP  RH WIND       PRES   REMARKS
FREDERICKSBRG* LGT RAIN  76  76 100 CALM      29.81S
STAFFORD*      LGT RAIN  76  76 100 CALM      29.85F

$$

NCZ024-NYZ072-PAZ021-071-VAZ022-071-281800-
OTHER REGIONAL OBSERVATIONS

CITY           SKY/WX    TMP DP  RH WIND       PRES   REMARKS
NEW YORK CITY  PTSUNNY   82  66  58 VRB3      29.87F
PHILADELPHIA   PTSUNNY   85  68  56 VRB3      29.83F
PITTSBURGH     CLOUDY    79  69  71 E7        29.84F
ROANOKE        CLOUDY    75  71  87 SW3       29.88F
RICHMOND       PTSUNNY   83  75  77 SE3       29.80F HX  90
RALEIGH        PTSUNNY   89  74  60 W9        29.83F HX  98

$$

ANZ530>537-281800-
MARINE OBSERVATIONS

STATION/POSITION TIME  TEMP    WIND        PRES
                       AIR SEA DIR/SP/G
                 (UTC) (F)     (DEG/KT/KT) (MB)
THOMAS PT LIGHT  1700   76 81  110/ 10/ 11   N/A
BALT KEY BRIDGE  1648   78      40/ 10/ 12 1008.8F
COVE POINT       1648   78     170/  8/ 10 1009.7S
LEWISETTA        1648   81 83  250/  5/  6 1009.0F
SOLOMONS ISLAND  1648   80 83  100/  7/  8   N/A
PINEY POINT      1648          150/  7/  8   N/A

$$





USA.gov is the U.S. government's official web portal to all federal, state and local government web resources and services.